Home > Weather > Chesterfield > Past weeks

Flag for United Kingdom Past Weather in Chesterfield, England, United Kingdom — Yesterday and Last 2 Weeks

Now
58 °F

Cool.


Feels Like: 58 °F
Forecast: 49 / 60 °F
Wind: 5 mph from Southwest

Location: Nottingham Weather Centre

Current Time: Jun 28, 2016 at 10:51:36 AM

Latest Report: Jun 28, 2016 at 10:00 AM


Visibility: 8 mi

Pressure: 29.99 "Hg

Humidity: 75%

Dew Point: 50 °F

Location of ChesterfieldLocation

Past Weather in Chesterfield — Graph

°F

Chesterfield Temperature Yesterday

Maximum temperature yesterday: 63 °F (at 2:00 PM)
Minimum temperature yesterday: 54 °F (at 5:00 AM)
Average temperature yesterday: 59 °F

High & Low Weather Summary for the Past Weeks

 TemperatureHumidityPressure
High71 °F (Jun 23, 4:00 PM)100% (Jun 14, 6:00 AM)30.22 "Hg (Jun 14, 6:00 AM)
Low51 °F (Jun 25, 5:00 AM)45% (Jun 24, 3:00 PM)29.32 "Hg (Jun 14, 5:00 PM)
Average58 °F83%29.87 "Hg
* Reported Jun 13 9:00 AM — Jun 28 9:00 AM, Chesterfield, Weather by CustomWeather, © 2016

Note: Actual official high and low records may vary slightly from our data, if they occured in-between our weather recording intervals... More about our weather records

Advertising

Chesterfield Weather History for the Previous 24 Hours

Scroll right to see more
 ConditionsComfort  
Time TempWeatherWind HumidityBarometerVisibility
9:00 AM
Tue, Jun 28
57 °FCool.5 mph79%30.01 "Hg22 mi
8:00 AM55 °FCool.3 mph82%30.02 "Hg28 mi
7:00 AM53 °FCool.3 mph84%30.03 "Hg14 mi
6:00 AM52 °FCool.3 mph88%30.05 "Hg14 mi
5:00 AM51 °FCool.6 mph88%30.05 "Hg8 mi
4:00 AM51 °FSmoke.7 mph87%30.05 "Hg6 mi
3:00 AM52 °FSmoke.6 mph85%30.07 "Hg10 mi
2:00 AM53 °FCool.8 mph82%30.09 "Hg19 mi
12:00 AM56 °FSmoke.5 mph74%30.10 "Hg31 mi
11:00 PM
Mon, Jun 27
57 °FCool.3 mph67%30.10 "Hg4 mi
10:00 PM58 °FCool.3 mph62%30.09 "Hg9 mi
9:00 PM59 °FRefreshingly cool.7 mph56%30.09 "Hg14 mi
8:00 PM61 °FRefreshingly cool.6 mph55%30.07 "Hg14 mi
7:00 PM62 °FRefreshingly cool.8 mph49%30.06 "Hg31 mi
5:00 PM63 °FMild.10 mph51%30.06 "Hg10 mi
3:00 PM62 °FMild.8 mph50%30.06 "Hg16 mi
2:00 PM63 °FMild.9 mph49%30.04 "Hg6 mi
1:00 PM63 °FMild.12 mph52%30.04 "Hg18 mi
12:00 PM62 °FRefreshingly cool.12 mph57%30.03 "Hg16 mi
11:00 AM60 °FCool.7 mph62%30.03 "Hg9 mi
10:00 AM59 °FCool.9 mph61%30.02 "Hg12 mi
Weather by CustomWeather, © 2016

See weather overviewHow to use our weather pages